CDT,Max TemperatureF,Mean TemperatureF,Min TemperatureF,Max Dew PointF,MeanDew PointF,Min DewpointF,Max Humidity, Mean Humidity, Min Humidity, Max Sea Level PressureIn, Mean Sea Level PressureIn, Min Sea Level PressureIn, Max VisibilityMiles, Mean VisibilityMiles, Min VisibilityMiles, Max Wind SpeedMPH, Mean Wind SpeedMPH, Max Gust SpeedMPH,PrecipitationIn, CloudCover, Events, WindDirDegrees
2013-7-1,84,72,60,61,56,46,100,59,27,30.05,30.00,29.96,10,10,3,13,3,23,0.00,0,,355
2013-7-2,84,70,55,59,53,46,100,57,27,30.09,30.06,30.02,10,10,10,13,2,20,0.00,0,,350
2013-7-3,86,72,57,59,54,46,88,56,25,30.12,30.06,30.00,10,10,7,9,3,,0.00,0,,89
2013-7-4,87,74,62,61,56,52,83,54,29,30.07,30.02,29.96,10,10,5,8,4,,0.00,0,,95
2013-7-5,91,78,64,61,58,54,83,54,28,30.05,29.99,29.91,10,10,10,10,3,,0.00,0,,104
2013-7-6,91,80,68,64,60,55,73,55,31,30.02,29.97,29.92,10,10,10,9,4,,0.00,0,,96
2013-7-7,93,81,69,68,64,61,83,56,34,30.05,30.00,29.97,10,10,5,9,4,,0.00,0,,128
2013-7-8,95,83,71,70,67,63,78,61,39,30.11,30.06,30.01,10,10,10,12,4,,0.00,0,,144
2013-7-9,96,84,71,70,68,64,94,57,34,30.11,30.04,29.97,10,10,10,15,4,18,0.00,0,,204
2013-7-10,100,86,71,72,68,64,83,57,32,30.03,29.98,29.90,10,10,10,17,4,26,0.00,0,,218
2013-7-11,98,86,73,72,69,61,94,62,32,29.99,29.96,29.89,10,10,10,13,2,,0.00,1,Thunderstorm,94
2013-7-12,93,83,73,72,66,63,83,58,38,30.04,29.99,29.95,10,10,7,16,6,20,0.00,0,,92
2013-7-13,91,80,68,64,59,55,78,51,31,30.06,30.00,29.95,10,10,10,9,5,,0.00,0,,99
2013-7-14,89,80,71,64,58,52,69,48,27,30.04,29.99,29.95,10,10,10,15,6,23,0.00,0,,93
2013-7-15,86,78,69,73,67,63,100,75,45,30.17,30.10,30.02,10,10,5,15,6,20,0.16,2,Rain-Thunderstorm,91
2013-7-16,89,79,69,73,71,68,100,86,49,30.25,30.20,30.16,10,9,1,15,3,20,0.60,2,Rain-Thunderstorm,96
2013-7-17,93,82,71,75,70,63,100,71,36,30.30,30.24,30.17,10,10,7,12,4,,0.00,1,,81
2013-7-18,95,83,71,75,68,61,100,65,34,30.21,30.14,30.02,10,10,5,7,2,,0.00,0,,352
2013-7-19,95,83,71,70,68,63,94,67,36,30.06,30.01,29.92,10,10,4,12,3,17,0.00,0,,108
2013-7-20,91,80,69,72,69,61,100,70,38,30.00,29.94,29.86,10,10,7,10,3,,0.00,1,Thunderstorm,120
2013-7-21,91,82,73,72,70,66,88,71,46,29.96,29.89,29.84,10,10,10,12,4,,0.00,0,Thunderstorm,117
2013-7-22,93,82,71,73,70,61,94,69,43,29.95,29.89,29.85,10,10,2,20,3,24,0.23,1,Thunderstorm,139
2013-7-23,98,86,73,73,71,64,100,66,37,29.93,29.88,29.79,10,10,2,21,5,33,0.34,1,Thunderstorm,222
2013-7-24,87,78,69,73,70,68,100,82,55,30.07,29.97,29.91,10,9,1,21,7,38,2.12,3,Thunderstorm,237
2013-7-25,87,78,69,73,71,64,100,78,46,30.09,30.04,30.00,10,9,1,9,2,,0.00,0,,106
2013-7-26,77,72,68,73,70,68,100,91,74,30.06,30.01,29.97,10,8,1,13,6,18,0.68,5,Thunderstorm,93
2013-7-27,86,75,64,68,65,57,100,77,37,30.07,30.01,29.95,10,10,5,12,1,,0.00,4,,345
2013-7-28,87,76,64,68,65,61,100,70,46,30.04,30.00,29.96,10,10,10,9,3,,0.00,1,,91
2013-7-29,87,79,71,72,69,64,88,71,58,30.06,30.02,29.97,10,10,7,13,8,18,0.00,2,,114
2013-7-30,87,80,73,75,72,70,89,75,58,30.06,30.02,29.98,10,9,4,8,4,,0.10,2,,169
2013-7-31,91,84,77,77,73,70,100,73,52,30.06,30.02,29.96,10,10,7,9,2,,0.00,2,Thunderstorm,33